This is the latest recevied weather packets stored in our database for station/object M0JUI-1. If no packets are shown the sender has not sent any weather packets the latest 10 day(s).
| Time | Temp. | Humidity | Pressure | Rain* | Wind** | Luminosity | Snow |
|---|---|---|---|---|---|---|---|
| 1777588058 | 12.22° C | 70% | 1021.6 hPa | 0 mm | - | 0 W/m² | - |
| 1777587758 | 12.22° C | 70% | 1021.9 hPa | 0 mm | - | 0 W/m² | - |
| 1777587446 | 12.22° C | 70% | 1021.8 hPa | 0 mm | - | 0 W/m² | - |
| 1777587146 | 12.22° C | 69% | 1021.8 hPa | 0 mm | - | 0 W/m² | - |
| 1777586847 | 12.22° C | 69% | 1021.7 hPa | 0 mm | - | 0 W/m² | - |
| 1777586546 | 12.22° C | 69% | 1021.8 hPa | 0 mm | - | 0 W/m² | - |
| 1777586246 | 12.78° C | 69% | 1021.7 hPa | 0 mm | - | 0 W/m² | - |
| 1777585947 | 12.78° C | 69% | 1021.7 hPa | 0 mm | - | 0 W/m² | - |
| 1777585646 | 12.78° C | 68% | 1021.5 hPa | 0 mm | - | 0 W/m² | - |
| 1777585346 | 12.78° C | 68% | 1021.8 hPa | 0 mm | - | 0 W/m² | - |
| 1777585047 | 12.78° C | 67% | 1021.7 hPa | 0 mm | - | 0 W/m² | - |
| 1777584747 | 13.33° C | 67% | 1021.6 hPa | 0 mm | - | 0 W/m² | - |
| 1777584446 | 12.78° C | 68% | 1021.7 hPa | 0 mm | - | 0 W/m² | - |
| 1777584146 | 13.33° C | 67% | 1021.6 hPa | 0 mm | - | 0 W/m² | - |
| 1777583846 | 13.33° C | 67% | 1021.5 hPa | 0 mm | - | 0 W/m² | - |
| 1777583547 | 13.33° C | 68% | 1021.5 hPa | 0 mm | - | 0 W/m² | - |
| 1777583247 | 13.33° C | 67% | 1021.5 hPa | 0 mm | - | 0 W/m² | - |
| 1777582947 | 13.33° C | 68% | 1021.3 hPa | 0 mm | - | 0 W/m² | - |
| 1777582646 | 13.33° C | 67% | 1021.3 hPa | 0 mm | - | 0 W/m² | - |
| 1777582346 | 13.89° C | 67% | 1021.5 hPa | 0 mm | - | 0 W/m² | - |
| 1777582046 | 13.89° C | 67% | 1021.4 hPa | 0 mm | - | 0 W/m² | - |
| 1777581734 | 13.89° C | 66% | 1021.5 hPa | 0 mm | - | 0 W/m² | - |
| 1777581434 | 13.89° C | 66% | 1021.5 hPa | 0 mm | - | 0 W/m² | - |
| 1777581134 | 14.44° C | 65% | 1021.6 hPa | 0 mm | - | 0 W/m² | - |
| 1777580834 | 14.44° C | 65% | 1021.5 hPa | 0 mm | - | 0 W/m² | - |
* Rain latest hour (hover to see other rain measurements)
** Current wind speed in m/s (hover to see current wind gust speed)